Weather History for Cheyenne, WY

Change the Weather History Date:

Wednesday, October 2, 2013

  Actual Average Record
Temperature  
Mean Temperature 56 °F 51 °F  
Max Temperature 69 °F 64 °F 82 °F (1992)
Min Temperature 43 °F 38 °F 25 °F (1959)
Degree Days  
Heating Degree Days 9 14  
Month to date heating degree days 19 28  
Since 1 July heating degree days 201 309  
Cooling Degree Days 0 0  
Month to date cooling degree days 0 0  
Year to date cooling degree days 520 348  
Growing Degree Days 6 (Base 50)    
Moisture  
Dew Point 36 °F    
Average Humidity 55    
Maximum Humidity 76    
Minimum Humidity 34    
Precipitation  
Precipitation 0.00 in 0.04 in 0.40 in (1930)
Month to date precipitation 0.00 0.08  
Year to date precipitation 15.38 14.01  
Snow  
Snow 0.00 in 0.10 in 1.20 in (1959)
Month to date snowfall 0.0 0.2  
Since 1 July snowfall 0.0 1.5  
Snow Depth 0.00 in    
Sea Level Pressure  
Sea Level Pressure 29.85 in    
Wind  
Wind Speed 9 mph (NNE)    
Max Wind Speed 20 mph    
Max Gust Speed 24 mph    
Visibility 10 miles    
Events      
T = Trace of Precipitation, MM = Missing Value Source: NWS Daily Summary

Daily Weather History Graph

Daily Weather History Graph

Search for Another Location

Airport:

Trip Planner

Search our weather history database for the weather conditions in past years. The results will help you decide how hot, cold, wet, or windy it might be!

Date:

Astronomy

Oct. 02, 2013 Rise Set
Actual Time 6:57 AM MDT 6:38 PM MDT
Civil Twilight 6:29 AM MDT 7:06 PM MDT
Nautical Twilight 5:57 AM MDT 7:38 PM MDT
Astronomical Twilight 5:25 AM MDT 8:10 PM MDT
Moon 4:31 AM MDT (10/2) 5:17 PM MDT (10/2)
Length of Visible Light 12h 36m
Length of Day
11h 41m
Waning Crescent, 6% of the Moon is Illuminated
Oct 2
Waning Crescent
Oct 4
New
Oct 11
First Quarter
Oct 18
Full
Oct 26
Last Quarter

Hourly Weather History & Observations

Time (MDT) Temp. Windchill Dew Point Humidity Pressure Visibility Wind Dir Wind Speed Gust Speed Precip Events Conditions
12:53 AM 48.9 °F - 39.9 °F 71% 29.86 in 10.0 mi West 5.8 mph - N/A   Clear
1:53 AM 46.0 °F 41.9 °F 39.9 °F 79% 29.85 in 10.0 mi West 8.1 mph - N/A   Clear
2:53 AM 48.9 °F - 37.9 °F 66% 29.82 in 10.0 mi North - - N/A   Clear
3:53 AM 48.0 °F - 37.0 °F 66% 29.83 in 10.0 mi West 10.4 mph - N/A   Clear
4:53 AM 48.0 °F - 34.0 °F 58% 29.83 in 10.0 mi WNW 10.4 mph - N/A   Clear
5:53 AM 48.0 °F - 33.1 °F 56% 29.86 in 10.0 mi WNW 9.2 mph - N/A   Clear
6:53 AM 48.0 °F - 32.0 °F 54% 29.88 in 10.0 mi WNW 11.5 mph - N/A   Clear
7:53 AM 51.1 °F - 33.1 °F 50% 29.87 in 10.0 mi WNW 6.9 mph - N/A   Clear
8:53 AM 60.1 °F - 37.9 °F 44% 29.86 in 10.0 mi NW 4.6 mph - N/A   Clear
9:53 AM 66.0 °F - 37.9 °F 36% 29.85 in 10.0 mi Calm Calm - N/A   Clear
10:53 AM 61.0 °F - 35.1 °F 38% 29.87 in 10.0 mi North 17.3 mph 24.2 mph N/A   Clear
11:53 AM 62.1 °F - 37.0 °F 39% 29.87 in 10.0 mi NNE 11.5 mph 20.7 mph N/A   Clear
12:53 PM 62.1 °F - 37.0 °F 39% 29.86 in 10.0 mi North 10.4 mph - N/A   Clear
1:53 PM 63.0 °F - 37.9 °F 40% 29.85 in 10.0 mi NE 16.1 mph 21.9 mph N/A   Clear
2:53 PM 62.1 °F - 36.0 °F 38% 29.83 in 10.0 mi ENE 10.4 mph 19.6 mph N/A   Clear
3:53 PM 60.1 °F - 37.0 °F 42% 29.85 in 10.0 mi ENE 12.7 mph 17.3 mph N/A   Clear
4:53 PM 59.0 °F - 36.0 °F 42% 29.84 in 10.0 mi NE 13.8 mph - N/A   Clear
5:53 PM 57.0 °F - 36.0 °F 45% 29.85 in 10.0 mi NE 8.1 mph - N/A   Clear
6:53 PM 54.0 °F - 37.0 °F 53% 29.86 in 10.0 mi NE 3.5 mph - N/A   Partly Cloudy
7:53 PM 51.1 °F - 39.0 °F 63% 29.87 in 10.0 mi East 4.6 mph - N/A   Clear
8:53 PM 48.9 °F - 37.0 °F 64% 29.84 in 10.0 mi East 5.8 mph - N/A   Clear
9:53 PM 46.9 °F - 35.1 °F 63% 29.82 in 10.0 mi East 6.9 mph - N/A   Clear
10:53 PM 46.0 °F 43.9 °F 34.0 °F 63% 29.85 in 10.0 mi NE 4.6 mph - N/A   Clear
11:53 PM 44.1 °F 40.8 °F 34.0 °F 68% 29.83 in 10.0 mi East 5.8 mph - N/A   Mostly Cloudy